Date String (YYYY-MM-DD hh:mm:ss) UTC,Instrument flags,Ambient pressure (hPa),Sample flow (lpm),Bypass flow (lpm),Sample temperature (°C),Ambient temperature (°C),ASC tube jacket temperature (°C),LED temperature (°C),Box temperature (°C),Sample RH (%),Span deviation,Mass concentration (μg/m³),Mass concentration (μg/m³),Mass concentration (μg/m³)
DateTimeUTC,F1_M11,P_M11,Q1_M11,Q2_M11,T1_M11,T2_M11,T3_M11,T4_M11,T5_M11,U1_M11,ZSPAN_M11,X0_M11,X2_M11,X1_M11
2022-05-08 10:00:00,,0815.9,5.02,0.00,24.4,23.7,00.0,33.5,26.2,20.9,0000.0,0030.04,0009.97,0003.77
2022-05-08 10:01:00,,0815.8,4.99,0.00,24.4,23.7,00.0,33.4,26.2,21.0,0000.0,0031.42,0009.89,0003.76
2022-05-08 10:02:00,,0815.9,5.01,0.00,24.3,23.7,00.0,33.4,26.2,21.0,0000.0,0031.27,0009.82,0003.77
2022-05-08 10:03:00,,0815.9,5.00,0.00,24.3,23.6,00.0,33.4,26.1,21.0,0000.0,0031.46,0009.89,0003.79
2022-05-08 10:04:00,,0815.9,5.00,0.00,24.3,23.6,00.0,33.4,26.2,21.0,0000.0,0031.73,0009.96,0003.81
2022-05-08 10:05:00,,0815.9,5.02,0.00,24.3,23.6,00.0,33.4,26.1,21.0,0000.0,0031.91,0010.03,0003.82
2022-05-08 10:06:00,,0815.8,4.99,0.00,24.3,23.6,00.0,33.4,26.1,21.1,0000.0,0032.46,0010.10,0003.84
2022-05-08 10:07:00,,0815.8,5.01,0.00,24.3,23.6,00.0,33.4,26.1,21.1,0000.0,0032.37,0010.14,0003.88
2022-05-08 10:08:00,,0815.9,4.99,0.00,24.3,23.6,00.0,33.4,26.1,21.0,0000.0,0031.01,0010.23,0003.90
2022-05-08 10:09:00,,0815.9,5.01,0.00,24.3,23.6,00.0,33.4,26.1,21.0,0000.0,0030.98,0010.27,0003.91
2022-05-08 10:10:00,,0816.0,4.99,0.00,24.3,23.6,00.0,33.4,26.1,21.0,0000.0,0031.31,0010.40,0003.95
2022-05-08 10:11:00,,0815.9,5.00,0.00,24.3,23.6,00.0,33.4,26.1,21.0,0000.0,0031.02,0010.48,0003.97
2022-05-08 10:12:00,,0815.9,5.00,0.00,24.3,23.6,00.0,33.4,26.1,21.0,0000.0,0030.20,0010.60,0003.98
2022-05-08 10:13:00,,0816.0,4.99,0.00,24.3,23.6,00.0,33.4,26.1,21.1,0000.0,0030.35,0010.69,0003.99
2022-05-08 10:14:00,,0815.9,5.01,0.00,24.3,23.6,00.0,33.3,26.1,21.0,0000.0,0030.36,0010.82,0004.00
2022-05-08 10:15:00,,0815.9,4.99,0.00,24.3,23.5,00.0,33.3,26.1,21.1,0000.0,0030.28,0010.82,0004.00
2022-05-08 10:16:00,,0816.0,5.01,0.00,24.3,23.5,00.0,33.3,26.1,21.0,0000.0,0030.67,0010.80,0004.00
2022-05-08 10:17:00,,0815.9,5.00,0.00,24.3,23.5,00.0,33.3,26.1,21.1,0000.0,0030.01,0010.76,0003.99
2022-05-08 10:18:00,,0815.9,4.99,0.00,24.3,23.5,00.0,33.3,26.1,21.0,0000.0,0029.81,0010.82,0003.99
2022-05-08 10:19:00,,0815.9,5.00,0.00,24.2,23.5,00.0,33.3,26.1,21.1,0000.0,0030.36,0010.82,0004.00
2022-05-08 10:20:00,,0816.0,5.00,0.00,24.2,23.5,00.0,33.3,26.0,21.2,0000.0,0031.22,0010.89,0004.02
2022-05-08 10:21:00,,0815.9,4.99,0.00,24.2,23.5,00.0,33.3,26.0,21.2,0000.0,0030.70,0010.82,0004.01
2022-05-08 10:22:00,,0816.0,5.00,0.00,24.2,23.4,00.0,33.3,26.0,21.2,0000.0,0030.42,0010.82,0004.01
2022-05-08 10:23:00,,0816.0,4.99,0.00,24.2,23.5,00.0,33.3,26.0,21.2,0000.0,0029.73,0010.77,0004.03
2022-05-08 10:24:00,,0816.0,5.01,0.00,24.2,23.5,00.0,33.3,26.0,21.1,0000.0,0029.40,0010.74,0004.04
2022-05-08 10:25:00,,0816.0,5.00,0.00,24.2,23.5,00.0,33.3,26.0,21.2,0000.0,0029.38,0010.65,0004.05
2022-05-08 10:26:00,,0816.0,4.99,0.00,24.2,23.5,00.0,33.2,26.0,21.3,0000.0,0030.98,0010.69,0004.06
2022-05-08 10:27:00,,0815.9,5.00,0.00,24.2,23.4,00.0,33.2,26.0,21.3,0000.7,0030.73,0010.67,0004.07
2022-05-08 10:28:00,,0816.0,5.01,0.00,24.1,23.4,00.0,33.2,26.0,21.4,0003.7,0031.08,0010.73,0004.09
2022-05-08 10:29:00,,0815.9,5.00,0.00,24.1,23.4,00.0,33.2,26.0,21.4,0003.7,0031.17,0010.71,0004.10
2022-05-08 10:30:00,,0815.9,5.00,0.00,24.1,23.4,00.0,33.2,25.9,21.4,0003.5,0030.44,0010.63,0004.10
2022-05-08 10:31:00,,0816.0,4.99,0.00,24.1,23.4,00.0,33.2,25.9,21.5,0003.5,0029.81,0010.58,0004.11
2022-05-08 10:32:00,,0816.0,5.01,0.00,24.1,23.4,00.0,33.2,25.9,21.5,0002.8,0030.37,0010.67,0004.12
2022-05-08 10:33:00,,0816.0,4.99,0.00,24.1,23.4,00.0,33.2,25.9,21.6,0001.1,0030.69,0010.72,0004.13
2022-05-08 10:34:00,,0816.0,5.00,0.00,24.0,23.3,00.0,33.2,25.8,21.6,-001.8,0031.50,0010.82,0004.12
2022-05-08 10:35:00,,0816.0,5.01,0.00,24.0,23.3,00.0,33.2,25.8,21.6,-001.3,0032.84,0010.89,0004.10
2022-05-08 10:36:00,,0816.1,5.01,0.00,24.0,23.3,00.0,33.1,25.7,21.6,-000.9,0032.88,0010.88,0004.07
2022-05-08 10:37:00,,0816.1,5.00,0.00,24.0,23.3,00.0,33.1,25.7,21.7,-001.6,0031.68,0010.79,0004.06
2022-05-08 10:38:00,,0816.0,5.01,0.00,24.0,23.3,00.0,33.1,25.7,21.8,-002.3,0031.10,0010.64,0004.05
2022-05-08 10:39:00,,0816.0,5.00,0.00,24.0,23.3,00.0,33.1,25.7,21.8,-003.0,0031.17,0010.53,0004.04
2022-05-08 10:40:00,,0816.0,5.00,0.00,23.9,23.3,00.0,33.1,25.7,21.8,-001.6,0030.19,0010.43,0004.03
2022-05-08 10:41:00,,0816.0,5.00,0.00,23.9,23.3,00.0,33.1,25.7,21.8,0000.0,0030.18,0010.49,0004.01
2022-05-08 10:42:00,,0816.0,4.99,0.00,23.9,23.2,00.0,33.1,25.7,21.9,0000.0,0030.08,0010.50,0004.00
2022-05-08 10:43:00,,0816.0,5.00,0.00,23.9,23.2,00.0,33.1,25.7,21.8,0000.0,0029.62,0010.54,0003.99
2022-05-08 10:44:00,,0816.0,5.01,0.00,23.9,23.2,00.0,33.0,25.7,21.9,0000.0,0029.84,0010.51,0003.98
2022-05-08 10:45:00,,0816.0,4.99,0.00,23.9,23.2,00.0,33.0,25.6,22.0,0000.0,0029.71,0010.42,0003.97
2022-05-08 10:46:00,,0816.1,5.01,0.00,23.9,23.2,00.0,33.0,25.6,22.0,0000.1,0028.59,0010.38,0003.97
2022-05-08 10:47:00,,0816.2,5.00,0.00,23.9,23.2,00.0,33.0,25.6,22.1,0000.0,0029.03,0010.40,0003.99
2022-05-08 10:48:00,,0816.0,4.99,0.00,23.9,23.1,00.0,33.0,25.6,22.2,0000.0,0029.20,0010.41,0004.00
2022-05-08 10:49:00,,0816.0,5.01,0.00,23.8,23.1,00.0,33.0,25.6,22.2,0001.5,0029.79,0010.49,0004.01
2022-05-08 10:50:00,,0816.1,4.99,0.00,23.8,23.0,00.0,33.0,25.6,22.3,0003.2,0030.43,0010.62,0004.03
2022-05-08 10:51:00,,0816.0,4.99,0.00,23.8,23.0,00.0,33.0,25.6,22.3,0003.1,0031.08,0010.66,0004.03
2022-05-08 10:52:00,,0816.1,5.01,0.00,23.8,23.0,00.0,32.9,25.6,22.3,0002.3,0031.21,0010.64,0004.02
2022-05-08 10:53:00,,0816.0,5.00,0.00,23.8,23.0,00.0,32.9,25.6,22.3,0000.9,0031.60,0010.60,0004.03
2022-05-08 10:54:00,,0816.0,4.99,0.00,23.8,23.0,00.0,32.9,25.6,22.2,0000.0,0032.16,0010.42,0004.02
2022-05-08 10:55:00,,0816.0,5.02,0.00,23.8,23.0,00.0,32.9,25.6,22.2,0000.0,0032.07,0010.50,0004.04
2022-05-08 10:56:00,,0816.1,5.00,0.00,23.8,23.0,00.0,32.9,25.6,22.2,0000.0,0031.51,0010.50,0004.05
2022-05-08 10:57:00,,0816.1,4.99,0.00,23.8,23.0,00.0,32.9,25.6,22.2,0000.0,0031.54,0010.48,0004.05
2022-05-08 10:58:00,,0816.2,5.01,0.00,23.8,23.0,00.0,32.9,25.6,22.2,0000.0,0031.20,0010.50,0004.07
2022-05-08 10:59:00,,0816.1,5.01,0.00,23.8,23.0,00.0,32.9,25.6,22.2,0000.0,0031.19,0010.66,0004.08
